Temp_Advection
nan nan nan nan nan nan nan nan nan nan nan nan nan nan nan nan nan nan nan nan nan nan nan nan nan nan nan nan nan nan nan nan nan nan nan nan nan nan nan nan nan nan nan
nan 1 1 1 0 0 0 0 0 0 0 0 0 0 0 0 0 0 0 0 0 -0 -0 -0 -0 -0 -0 -0 -0 -0 -0 -1 -1 -1 -1 -0 0 -0 0 -0 -0 -0 nan
nan 1 1 0 0 0 0 0 0 0 0 0 0 0 0 0 -0 0 0 0 1 0 0 -0 -0 -0 -0 -0 0 -0 -1 -1 -1 -1 -2 -1 -1 -0 0 0 0 0 nan
nan 1 1 0 0 0 0 0 0 0 0 0 0 0 0 0 -0 -0 -0 0 1 1 1 0 0 0 0 1 0 0 0 -0 -1 -1 -1 -2 -1 -1 -0 -0 -0 0 nan
nan 1 0 0 0 0 0 0 0 0 0 0 0 0 0 -0 -0 -0 0 0 0 0 0 1 0 0 0 2 2 1 0 -0 -0 -1 -1 -1 -1 -2 -1 -0 0 -0 nan
nan 0 0 0 0 0 0 0 0 0 0 0 0 0 0 -0 -1 -0 0 0 -0 -0 -0 0 0 -0 -0 0 1 1 1 0 -0 -0 -1 -1 -1 -1 -1 -1 -0 0 nan
nan 0 0 0 0 0 0 0 0 0 0 0 0 0 0 -0 -1 0 -0 0 -0 -0 -0 -0 -0 -1 -1 0 0 -1 -1 0 1 0 -1 -1 -0 -0 -0 -1 -1 -1 nan
nan 0 0 0 0 0 0 0 0 0 0 -0 -0 -0 0 0 0 -0 -0 -0 -0 -1 -0 -0 -0 0 0 -0 1 -0 -2 -1 0 1 0 -0 -0 0 0 -0 -0 -0 nan
nan 0 0 0 0 0 0 0 0 -0 0 0 0 -0 -0 0 -0 -0 -0 0 0 -1 -1 -0 -0 -0 0 0 0 -0 -1 -0 0 0 0 0 0 0 0 -0 -0 -0 nan
nan 0 0 0 0 0 0 0 0 0 0 -0 -0 -0 0 -0 -0 -0 -0 -0 1 1 0 -0 -0 0 0 1 1 -0 -2 -1 -0 -0 -0 0 0 0 0 0 0 0 nan
nan 0 0 0 0 0 1 0 0 0 0 0 0 -0 -0 -0 0 -0 0 0 0 0 1 1 0 1 0 0 1 0 0 -1 -0 -1 -1 -1 -0 -0 -0 0 0 0 nan
nan 0 0 0 0 1 0 0 0 0 0 0 -0 -0 -0 -0 -0 -0 -0 0 0 -0 -0 0 0 0 -0 -0 0 -0 0 -0 -0 -0 -0 -1 -1 -1 -0 -0 -0 0 nan
nan 0 0 0 1 0 0 0 0 0 0 -0 -0 -0 -0 -0 -1 -1 -1 -0 -0 -0 -0 -0 0 0 -0 -1 -0 -0 -0 -0 -0 -0 -0 -0 -0 -0 -0 -0 -0 -0 nan
nan 0 0 0 0 0 0 0 0 0 0 -0 -0 -0 -0 -0 -0 -0 -0 -0 -0 -0 -0 -0 0 -0 0 -1 -1 -1 -0 -0 -0 -0 -0 -0 -0 -0 -0 -0 -0 -0 nan
nan 1 1 0 0 0 0 0 0 0 0 0 -0 -0 -0 -0 -0 -0 -0 0 0 -0 -0 -0 -0 -0 -0 -0 -0 -0 -0 -0 -0 0 0 -0 -0 -0 -0 -0 0 -0 nan
nan 0 0 0 0 0 0 0 0 0 0 0 0 0 -0 -0 -0 -0 -0 0 0 0 -0 -0 -0 0 -0 -0 -0 -0 -0 -0 -0 0 0 0 0 -0 -0 -0 0 0 nan
nan 0 0 0 0 0 0 0 0 0 0 0 0 0 0 -0 -0 -0 -0 -0 0 0 -0 -0 -0 0 -0 -0 -0 -0 -0 -0 -0 0 0 0 0 -0 -0 -0 -0 0 nan
nan 0 0 0 0 0 0 0 0 0 -0 0 0 0 0 0 -0 -0 -0 -1 -0 0 -0 -0 -0 -0 0 -0 -0 -0 -0 -0 -0 -0 0 0 0 -0 0 -0 -0 -0 nan
nan 1 1 1 0 0 0 0 0 0 0 0 -0 0 0 -0 -0 -0 -0 -0 -0 0 0 -0 -0 -0 0 0 0 -0 -0 -0 -0 -0 0 0 0 -0 -0 -0 0 -0 nan
nan 1 0 0 0 0 0 0 0 0 0 0 0 0 -0 -0 -0 -0 -0 -0 -0 0 1 -0 -0 0 -0 0 0 -0 -0 -0 -0 -0 -0 0 0 -0 -0 -0 -0 -0 nan
nan 0 0 0 0 0 0 0 0 0 0 0 0 0 0 -0 -0 -0 -0 -0 -0 -0 1 0 -0 -0 0 -0 0 -0 -0 -0 -0 -0 -0 0 0 -0 -0 -0 -0 -0 nan
nan 0 0 0 0 0 0 0 1 1 1 0 0 -0 -0 0 0 -0 -0 -0 -0 -0 0 0 0 -0 0 0 0 -0 -0 -0 -0 -0 -0 0 0 -0 -0 -0 -0 -0 nan
nan 0 0 0 0 0 0 0 1 1 1 1 1 0 -1 -1 -0 0 -0 -0 -0 -0 -0 0 0 -0 0 0 0 -0 -0 -0 -0 -0 -0 0 0 0 0 0 0 -0 nan
nan 1 1 1 0 0 1 0 0 0 1 1 0 0 0 -0 -0 -0 -0 -0 -1 -1 -0 -0 0 -0 -0 0 -0 -0 -0 -0 -0 -0 0 0 0 0 0 0 0 0 nan
nan 1 1 1 1 1 0 0 0 0 0 0 0 0 0 0 0 0 -0 -0 -1 -2 -1 -0 -0 -0 -0 -0 0 -0 -0 -0 -0 -0 0 0 0 0 0 0 0 0 nan
nan nan nan nan nan nan nan nan nan nan nan nan nan nan nan nan nan nan nan nan nan nan nan nan nan nan nan nan nan nan nan nan nan nan nan nan nan nan nan nan nan nan nan
Wind_Speed
32 29 25 21 17 13 8 5 6 9 11 13 14 15 16 17 16 16 14 14 15 15 15 15 17 17 18 19 21 24 25 27 32 45 32 32 30 28 31 26 26 26 25
30 27 23 20 15 10 7 6 8 10 13 14 14 14 14 15 15 14 13 13 14 14 15 16 17 17 19 19 23 22 24 27 29 38 38 35 33 30 27 27 25 26 22
29 27 23 18 14 11 8 8 10 12 13 12 12 13 13 13 13 14 14 14 14 15 16 17 18 18 20 20 23 26 26 27 31 35 42 35 33 26 27 26 24 24 22
28 26 23 19 15 10 9 10 12 11 10 10 12 12 12 11 11 12 14 15 16 16 18 18 19 19 20 22 24 25 29 30 32 35 40 42 37 32 26 27 25 22 23
29 26 23 19 14 10 9 10 9 8 9 10 10 10 9 9 10 13 17 19 19 20 21 21 22 25 29 31 29 28 28 31 34 35 36 35 34 33 27 26 26 25 27
29 26 23 18 12 8 7 7 7 8 9 8 8 8 7 8 14 18 21 22 22 23 25 27 27 27 26 28 28 27 27 31 34 34 37 37 36 33 32 29 26 29 30
28 26 21 14 9 7 6 6 8 8 7 7 8 9 9 9 17 20 24 25 25 25 27 27 27 25 27 29 30 31 31 30 31 34 37 37 37 33 30 29 30 29 32
27 23 17 11 6 5 6 9 8 6 6 8 10 11 12 15 17 20 23 23 23 24 24 25 26 28 26 30 31 32 32 28 25 27 29 33 33 32 28 25 26 30 32
27 20 14 9 6 7 9 9 9 8 8 8 9 10 11 12 12 15 19 20 22 23 25 25 27 29 29 29 29 30 29 25 24 24 24 25 25 21 20 22 26 28 32
24 17 9 7 7 10 12 10 10 9 7 6 5 5 6 8 12 16 20 21 24 26 27 29 31 31 31 28 26 26 27 26 25 23 21 20 20 20 21 23 25 28 29
19 12 10 7 9 12 10 9 8 5 3 2 2 4 6 9 12 15 19 22 24 28 29 30 29 33 30 27 20 20 22 24 24 25 26 25 23 22 23 23 23 23 23
16 13 8 10 12 11 10 8 7 5 4 2 3 5 8 13 15 17 20 21 22 25 28 28 31 32 27 20 16 17 19 21 23 25 24 22 20 19 18 16 15 15 16
13 12 12 13 13 13 12 10 8 5 2 2 6 8 11 15 16 21 24 24 23 24 26 28 30 29 24 20 16 17 19 20 22 21 20 19 19 17 13 9 6 5 6
15 14 17 17 17 16 14 11 7 4 1 4 6 10 13 15 16 20 23 24 26 26 27 28 27 24 23 21 19 20 19 19 20 18 19 17 14 10 5 3 2 1 1
17 20 20 20 19 16 12 8 6 3 3 5 8 11 15 17 18 22 25 27 27 27 27 26 25 22 22 21 20 20 18 17 16 16 14 11 9 6 4 2 2 1 8
24 23 22 21 18 14 11 8 6 5 6 8 11 14 15 18 20 22 25 26 25 23 23 23 22 19 21 22 22 21 17 16 15 12 11 9 6 4 2 1 4 7 11
24 24 21 18 15 12 11 10 9 8 8 9 12 15 17 18 19 22 24 26 25 22 19 20 21 21 20 22 21 19 16 15 13 10 8 6 4 2 1 3 7 10 13
23 20 18 16 14 12 12 11 11 12 12 13 14 16 17 18 18 20 24 26 24 20 19 20 22 21 20 21 20 18 15 13 11 8 6 4 2 1 2 6 8 11 15
21 18 16 14 13 13 13 14 14 15 16 17 17 18 19 19 19 19 20 22 23 20 20 20 20 21 20 19 19 18 15 13 10 6 4 3 1 1 5 8 10 12 14
18 16 14 13 14 15 16 17 18 19 20 21 22 21 21 21 21 20 19 21 22 20 18 20 20 20 20 19 19 17 14 11 9 6 4 3 2 3 6 10 11 13 13
17 15 15 17 18 18 19 20 22 22 24 25 26 24 23 23 22 20 20 19 20 21 19 18 20 19 20 19 17 15 14 12 10 8 6 5 4 6 10 12 14 14 17
17 17 18 20 21 22 23 23 25 26 26 26 27 26 25 23 23 22 21 19 19 20 20 19 19 20 19 19 18 16 15 13 11 10 9 8 8 9 11 14 15 16 17
20 21 23 23 24 25 27 27 28 29 29 27 24 23 24 23 23 23 22 22 21 21 21 20 19 20 19 18 18 17 16 14 13 12 12 11 11 11 13 15 16 17 17
23 23 24 23 25 26 27 29 29 28 26 25 25 26 25 24 23 23 23 23 23 22 22 22 21 19 19 18 18 17 17 15 16 14 14 14 14 15 16 16 17 17 18
20 21 22 24 25 25 23 23 24 24 23 23 23 23 23 23 23 21 20 20 22 22 22 23 22 21 19 18 18 17 18 17 17 17 16 17 17 18 19 19 19 20 20
19 20 20 19 18 19 19 19 18 18 18 19 21 21 21 21 21 20 20 19 19 19 23 24 24 21 20 20 19 18 18 18 18 18 18 18 20 21 22 23 22 22 22
Wind_Direction
181 181 183 183 182 183 191 224 276 288 287 288 288 289 295 299 299 297 293 295 298 299 299 300 300 300 297 294 287 287 292 292 288 291 291 290 290 292 299 298 298 299 297
180 181 182 184 184 188 209 245 270 276 282 286 287 295 298 300 301 300 302 301 306 304 304 303 300 298 296 295 292 289 289 288 288 290 293 290 287 292 291 296 297 299 296
181 184 184 185 186 198 223 251 267 279 283 286 293 296 300 302 305 304 306 309 307 305 303 299 300 300 300 296 292 293 291 289 286 285 287 289 289 288 289 291 295 297 302
179 180 185 187 193 206 237 257 272 279 281 289 293 297 301 304 306 308 310 310 309 303 300 300 301 299 297 296 298 296 293 295 293 288 285 283 284 284 282 288 287 294 293
177 178 184 191 197 218 245 265 276 280 285 286 290 295 298 303 298 310 311 305 302 300 298 297 295 294 299 297 295 294 292 296 297 296 293 292 289 286 279 281 283 290 296
177 180 187 190 201 226 254 270 281 284 285 284 282 284 292 305 299 302 303 308 308 305 303 303 303 305 304 301 300 296 285 288 290 291 291 289 292 289 284 281 282 287 299
174 181 185 190 204 229 253 273 280 275 276 275 276 281 288 289 297 300 306 312 311 310 309 312 312 311 312 308 303 301 297 293 286 284 287 288 289 289 288 281 280 285 289
175 179 184 187 215 244 261 266 260 260 261 265 275 288 292 296 299 306 316 319 319 318 317 319 314 315 314 311 308 303 303 305 300 299 292 290 291 288 282 280 280 285 287
176 178 182 198 232 251 257 247 249 265 275 284 294 300 302 305 313 324 327 327 324 321 318 318 318 320 316 317 310 307 308 310 313 303 297 294 295 289 279 280 279 283 287
175 175 188 219 230 251 245 243 253 261 270 285 297 304 312 326 330 334 332 327 321 322 322 325 327 326 323 319 313 309 307 316 316 313 306 297 290 288 284 277 278 279 282
169 178 196 210 237 237 232 236 238 238 225 231 292 327 334 335 336 335 333 329 324 319 324 328 329 329 326 319 313 305 308 311 312 313 313 310 304 299 294 286 277 271 270
173 185 190 218 223 214 205 196 182 181 193 244 318 337 346 346 343 344 339 331 326 323 328 331 332 332 328 323 316 311 308 310 315 318 318 317 311 307 300 293 275 261 259
177 188 205 203 192 184 177 173 173 182 212 306 347 352 348 344 339 339 339 338 337 332 331 332 333 333 332 327 319 313 312 318 320 320 318 314 310 309 302 300 297 277 259
184 190 191 184 178 174 173 178 185 201 278 331 336 338 340 342 341 339 337 336 337 333 331 333 335 338 333 331 326 320 320 322 324 324 319 319 321 325 317 292 306 354 185
189 183 178 175 175 175 180 188 201 230 286 314 324 331 334 337 338 340 343 339 336 330 329 334 339 342 336 334 331 326 323 323 326 324 329 328 331 333 318 269 193 101 121
180 176 175 176 178 184 193 206 224 256 284 305 318 322 329 331 332 336 341 340 333 328 331 337 341 341 338 336 332 329 327 326 327 331 334 335 339 335 339 50 122 138 128
178 176 179 183 190 199 210 223 239 252 275 293 302 310 318 321 324 331 338 341 334 333 340 341 340 341 338 337 332 328 323 323 332 337 335 338 349 1 47 122 126 128 124
178 180 185 193 201 211 225 238 251 264 276 286 296 303 305 310 319 329 335 337 336 337 336 336 338 337 336 333 330 324 317 318 325 326 333 338 349 7 118 133 134 132 126
180 188 195 204 216 229 242 254 265 275 284 290 293 294 300 310 317 324 331 335 335 329 331 331 332 334 331 329 326 322 313 311 310 308 315 306 319 104 140 141 142 138 133
188 198 209 222 234 245 256 264 271 277 282 286 289 294 301 308 313 318 322 327 333 327 321 327 326 329 328 325 323 320 310 305 303 290 285 266 228 161 148 140 135 131 132
204 214 227 239 248 258 265 272 276 278 280 281 283 288 295 299 304 309 311 316 326 330 322 317 323 321 325 320 317 315 305 294 285 266 253 234 206 170 158 156 152 143 137
223 233 243 250 258 263 270 275 276 277 276 276 279 281 288 289 293 298 300 304 309 320 324 313 311 317 315 316 309 305 299 286 275 257 240 228 210 189 173 165 157 152 149
240 247 252 258 264 270 272 273 274 275 276 274 271 271 277 280 283 287 291 295 299 304 314 311 305 308 308 308 304 297 291 279 266 252 238 230 217 202 186 177 171 165 161
245 251 256 260 264 270 271 274 277 277 272 269 272 273 273 274 278 281 285 289 291 295 301 307 302 300 304 295 299 290 284 273 257 246 235 232 225 210 199 189 181 177 170
252 258 264 271 274 274 273 274 274 272 270 272 272 267 268 271 273 275 279 283 288 293 296 298 300 294 294 289 285 282 276 269 253 243 234 230 226 217 208 198 190 182 177
260 267 271 272 271 271 270 271 270 270 267 265 264 265 266 265 267 266 272 278 284 289 291 294 292 291 286 290 277 277 269 263 250 239 232 228 223 216 208 201 193 186 180
Height
1486 1490 1493 1497 1501 1504 1507 1508 1510 1511 1512 1512 1512 1511 1509 1507 1506 1505 1504 1501 1499 1498 1496 1494 1491 1490 1488 1484 1480 1475 1473 1473 1464 1450 1455 1452 1448 1444 1442 1439 1435 1431 1426
1483 1487 1490 1494 1497 1501 1503 1505 1506 1507 1507 1507 1506 1505 1503 1502 1500 1498 1497 1495 1494 1493 1491 1489 1486 1484 1480 1478 1474 1468 1465 1464 1460 1449 1445 1444 1441 1438 1434 1430 1427 1422 1418
1478 1481 1486 1491 1494 1497 1500 1502 1502 1503 1502 1502 1501 1500 1498 1497 1495 1494 1492 1490 1489 1488 1486 1483 1481 1478 1475 1473 1468 1462 1458 1453 1449 1445 1434 1436 1433 1430 1427 1424 1421 1416 1412
1474 1478 1483 1487 1490 1493 1496 1497 1497 1497 1497 1497 1495 1494 1493 1493 1491 1490 1488 1486 1485 1483 1481 1478 1475 1472 1468 1463 1458 1456 1450 1443 1439 1435 1428 1424 1424 1422 1420 1417 1413 1412 1407
1469 1474 1478 1482 1486 1489 1491 1492 1492 1492 1492 1492 1491 1490 1490 1489 1487 1486 1484 1482 1480 1478 1475 1471 1468 1464 1460 1455 1450 1445 1442 1436 1432 1427 1421 1417 1414 1412 1412 1410 1406 1404 1400
1464 1470 1474 1478 1482 1485 1487 1487 1488 1488 1488 1488 1487 1487 1487 1486 1483 1481 1480 1478 1475 1471 1467 1463 1460 1456 1452 1447 1443 1438 1435 1429 1424 1421 1415 1410 1406 1405 1403 1401 1399 1397 1392
1460 1465 1471 1475 1478 1480 1482 1483 1484 1484 1484 1484 1484 1484 1483 1481 1479 1477 1475 1472 1468 1465 1461 1458 1452 1448 1443 1439 1433 1427 1424 1421 1418 1413 1407 1403 1399 1398 1395 1393 1392 1390 1387
1456 1462 1468 1471 1474 1476 1478 1479 1480 1481 1481 1481 1481 1480 1479 1478 1476 1474 1470 1467 1462 1460 1456 1451 1447 1441 1437 1431 1423 1417 1414 1411 1409 1406 1401 1395 1392 1390 1388 1386 1385 1383 1381
1452 1458 1463 1466 1469 1471 1473 1475 1477 1477 1478 1477 1476 1476 1475 1473 1472 1469 1465 1462 1458 1455 1452 1447 1440 1435 1431 1425 1417 1410 1406 1403 1402 1398 1394 1389 1386 1383 1381 1380 1379 1378 1374
1448 1453 1457 1461 1464 1467 1469 1472 1473 1474 1474 1474 1474 1474 1473 1471 1468 1466 1463 1459 1455 1450 1446 1441 1435 1428 1422 1418 1412 1406 1401 1398 1394 1391 1387 1384 1381 1378 1377 1375 1374 1372 1370
1444 1449 1452 1455 1460 1463 1466 1469 1470 1471 1472 1472 1472 1471 1470 1468 1465 1463 1460 1456 1451 1445 1439 1432 1427 1422 1416 1412 1407 1403 1399 1394 1390 1386 1382 1378 1375 1373 1371 1369 1368 1367 1366
1438 1443 1447 1452 1456 1460 1463 1465 1467 1469 1470 1471 1470 1470 1467 1464 1462 1460 1455 1451 1448 1442 1435 1428 1422 1416 1410 1407 1404 1400 1396 1392 1388 1383 1378 1374 1371 1368 1366 1365 1363 1362 1361
1435 1440 1445 1449 1454 1458 1460 1463 1466 1468 1468 1467 1467 1466 1465 1461 1458 1454 1450 1446 1442 1436 1432 1425 1418 1411 1407 1403 1401 1397 1393 1389 1384 1380 1376 1372 1369 1366 1364 1362 1361 1360 1359
1432 1438 1442 1447 1451 1455 1457 1460 1463 1465 1465 1465 1463 1462 1460 1458 1455 1451 1446 1440 1436 1431 1425 1421 1414 1408 1405 1401 1397 1394 1391 1386 1382 1378 1374 1371 1368 1365 1364 1363 1362 1361 1360
1430 1435 1439 1444 1448 1452 1456 1458 1460 1462 1461 1460 1459 1458 1456 1453 1451 1447 1442 1436 1430 1427 1422 1416 1410 1406 1403 1398 1395 1392 1388 1384 1381 1377 1373 1371 1368 1366 1365 1364 1363 1363 1362
1427 1432 1437 1442 1446 1449 1452 1456 1457 1458 1457 1457 1455 1453 1452 1449 1447 1444 1438 1432 1429 1423 1419 1413 1409 1405 1401 1397 1394 1390 1387 1383 1380 1376 1374 1372 1370 1368 1367 1366 1366 1365 1365
1424 1430 1435 1440 1444 1447 1450 1452 1454 1454 1453 1453 1452 1450 1448 1447 1443 1438 1433 1428 1426 1421 1416 1411 1408 1403 1400 1397 1394 1390 1386 1383 1380 1377 1375 1373 1371 1370 1369 1368 1368 1368 1368
1423 1429 1432 1437 1440 1443 1447 1448 1450 1451 1450 1449 1449 1446 1445 1442 1437 1432 1429 1427 1422 1417 1414 1409 1405 1401 1398 1395 1393 1389 1386 1383 1380 1378 1376 1374 1373 1372 1371 1370 1370 1370 1371
1421 1427 1430 1434 1437 1440 1442 1443 1444 1444 1443 1442 1442 1441 1438 1436 1432 1428 1424 1423 1418 1415 1410 1406 1403 1399 1396 1393 1391 1388 1385 1383 1380 1378 1377 1376 1375 1373 1373 1372 1372 1373 1374
1419 1424 1428 1431 1434 1437 1437 1437 1436 1436 1436 1435 1435 1433 1430 1429 1426 1423 1421 1418 1414 1410 1406 1403 1400 1396 1393 1391 1389 1386 1384 1382 1380 1378 1377 1377 1376 1375 1374 1375 1376 1377 1377
1418 1419 1424 1428 1430 1431 1430 1431 1431 1429 1428 1428 1427 1425 1423 1421 1418 1416 1416 1413 1410 1406 1402 1399 1396 1393 1390 1388 1386 1384 1382 1381 1379 1378 1377 1377 1377 1377 1377 1377 1378 1379 1380
1414 1416 1419 1422 1423 1423 1422 1422 1422 1421 1420 1419 1418 1416 1414 1413 1412 1409 1409 1407 1404 1401 1398 1395 1392 1389 1387 1385 1383 1382 1380 1379 1378 1377 1377 1377 1377 1378 1378 1379 1380 1382 1384
1410 1412 1414 1415 1415 1415 1414 1413 1413 1412 1411 1410 1409 1408 1406 1405 1404 1403 1402 1400 1398 1396 1393 1390 1387 1385 1383 1381 1380 1378 1377 1376 1376 1375 1376 1376 1377 1378 1379 1380 1381 1383 1385
1403 1404 1406 1406 1406 1406 1405 1403 1403 1403 1401 1400 1398 1399 1398 1397 1396 1395 1394 1392 1390 1389 1387 1384 1382 1380 1378 1377 1375 1374 1373 1373 1373 1373 1373 1374 1375 1376 1378 1380 1381 1384 1386
1397 1398 1398 1397 1396 1396 1396 1395 1394 1394 1393 1390 1390 1391 1390 1389 1388 1387 1386 1384 1383 1381 1380 1378 1376 1374 1373 1371 1370 1369 1369 1368 1369 1369 1370 1371 1372 1374 1376 1379 1380 1383 1386
1390 1391 1390 1389 1389 1388 1387 1387 1386 1385 1384 1383 1383 1382 1381 1381 1380 1379 1378 1377 1376 1374 1372 1370 1369 1367 1366 1365 1364 1363 1363 1363 1364 1365 1366 1367 1369 1371 1373 1376 1379 1382 1385